Date String (YYYY-MM-DD hh:mm:ss) UTC,Instrument flags,absolute air pressure of the measurement (hPa),sample flow rate (lpm),inlet stack bypass flow (lpm),air temperature of the measurement (°C),ambient temperature measured by the external sensor (°C),aerosol sample conditioner tube jacket temperature (°C),OPC LED temperature (°C),internal box temperature (°C),relative humidity of the measurement (%),span deviation,mass concentration of particles derived from Lorenz-Mie calculation of OPC scattering (μg/m³),mass concentration of particles derived from Lorenz-Mie calculation of OPC scattering (μg/m³),mass concentration of particles derived from Lorenz-Mie calculation of OPC scattering (μg/m³)
DateTimeUTC,F1_M11,P_M11,Q1_M11,Q2_M11,T1_M11,T2_M11,T3_M11,T4_M11,T5_M11,U1_M11,ZSPAN_M11,X0_M11,X2_M11,X1_M11
2024-06-04 20:00:00,SystemResetWarning,0824.9,5.00,000.00,028.9,026.7,000.0,037.7,030.2,013.5,0000.0,0006.77,0001.95,0001.03
2024-06-04 20:01:00,SystemResetWarning,0824.9,5.00,000.00,029.0,027.1,000.0,037.6,030.4,013.4,0000.0,0006.74,0001.91,0001.05
2024-06-04 20:02:00,SystemResetWarning,0824.9,5.00,000.00,029.0,027.5,000.0,037.6,030.6,013.6,0000.0,0006.62,0001.91,0001.06
2024-06-04 20:03:00,SystemResetWarning,0824.9,5.00,000.00,029.1,027.9,000.0,037.5,030.7,013.2,0000.0,0006.33,0001.92,0001.07
2024-06-04 20:04:00,SystemResetWarning,0824.9,4.99,000.00,029.1,028.1,000.0,037.5,030.9,013.7,0000.0,0005.07,0001.93,0001.07
2024-06-04 20:05:00,SystemResetWarning,0824.9,5.00,000.00,029.2,028.4,000.0,037.5,031.0,013.2,0000.0,0004.88,0001.94,0001.09
2024-06-04 20:06:00,SystemResetWarning,0824.9,5.00,000.00,029.3,028.6,000.0,037.5,031.1,012.9,0000.0,0004.41,0001.90,0001.09
2024-06-04 20:07:00,SystemResetWarning,0824.9,5.00,000.00,029.3,028.7,000.0,037.5,031.2,013.0,0000.0,0004.32,0001.89,0001.09
2024-06-04 20:08:00,SystemResetWarning,0824.9,5.00,000.00,029.4,028.9,000.0,037.5,031.2,013.8,0000.0,0004.33,0001.92,0001.09
2024-06-04 20:09:00,SystemResetWarning,0824.9,5.00,000.00,029.5,029.0,000.0,037.6,031.3,013.7,0000.0,0004.08,0001.85,0001.09
2024-06-04 20:10:00,SystemResetWarning,0824.9,5.00,000.00,029.6,029.1,000.0,037.6,031.4,012.9,0000.0,0003.90,0001.85,0001.09
2024-06-04 20:11:00,SystemResetWarning,0824.9,5.01,000.00,029.6,029.2,000.0,037.7,031.5,013.1,0000.0,0003.56,0001.78,0001.09
2024-06-04 20:12:00,SystemResetWarning,0824.9,5.00,000.00,029.7,029.3,000.0,037.7,031.5,013.7,0000.0,0004.02,0001.80,0001.09
2024-06-04 20:13:00,SystemResetWarning,0824.9,4.99,000.00,029.7,028.3,000.0,037.8,031.0,014.1,0000.0,0004.06,0001.83,0001.10
2024-06-04 20:14:00,SystemResetWarning,0824.9,5.01,000.00,029.3,026.7,000.0,037.8,030.3,013.3,0000.0,0004.16,0001.89,0001.10
2024-06-04 20:15:00,SystemResetWarning,0824.9,5.01,000.00,029.2,026.9,000.0,037.8,030.3,013.7,0000.0,0005.23,0001.89,0001.11
2024-06-04 20:16:00,SystemResetWarning,0824.9,4.99,000.00,029.2,027.3,000.0,037.7,030.5,014.1,0000.0,0005.52,0001.92,0001.11
2024-06-04 20:17:00,SystemResetWarning,0824.9,4.99,000.00,029.2,027.6,000.0,037.7,030.7,013.8,0000.0,0005.64,0001.96,0001.11
2024-06-04 20:18:00,SystemResetWarning,0824.9,5.01,000.00,029.3,027.9,000.0,037.6,030.9,013.4,0000.0,0005.43,0001.94,0001.11
2024-06-04 20:19:00,SystemResetWarning,0824.9,5.01,000.00,029.3,028.2,000.0,037.6,031.0,013.7,0000.0,0005.52,0001.99,0001.13
2024-06-04 20:20:00,SystemResetWarning,0824.9,5.01,000.00,029.4,028.4,000.0,037.6,031.1,014.0,0000.0,0005.96,0002.05,0001.13
2024-06-04 20:21:00,SystemResetWarning,0824.9,4.99,000.00,029.4,028.7,000.0,037.6,031.2,013.4,0000.0,0007.54,0002.10,0001.13
2024-06-04 20:22:00,SystemResetWarning,0824.9,5.00,000.00,029.5,028.8,000.0,037.6,031.3,013.4,0000.0,0007.98,0002.16,0001.14
2024-06-04 20:23:00,SystemResetWarning,0824.9,5.00,000.00,029.6,029.0,000.0,037.7,031.4,014.3,0000.0,0008.69,0002.14,0001.14
2024-06-04 20:24:00,SystemResetWarning,0824.9,5.00,000.00,029.6,029.1,000.0,037.7,031.4,013.7,0000.0,0008.59,0002.13,0001.13
2024-06-04 20:25:00,SystemResetWarning,0824.9,5.00,000.00,029.7,029.2,000.0,037.8,031.5,013.2,0000.0,0008.52,0002.07,0001.12
2024-06-04 20:26:00,SystemResetWarning,0824.9,4.99,000.00,029.6,027.9,000.0,037.8,030.8,013.2,0000.0,0008.63,0002.09,0001.12
2024-06-04 20:27:00,SystemResetWarning,0824.9,5.01,000.00,029.3,026.7,000.0,037.9,030.2,013.6,0000.0,0008.43,0002.13,0001.13
2024-06-04 20:28:00,SystemResetWarning,0824.9,5.02,000.00,029.2,027.0,000.0,037.8,030.3,013.5,0000.0,0008.38,0002.10,0001.14
2024-06-04 20:29:00,SystemResetWarning,0824.8,4.99,000.00,029.2,027.4,000.0,037.7,030.5,013.6,0000.0,0008.39,0002.07,0001.14
2024-06-04 20:30:00,SystemResetWarning,0824.8,4.99,000.00,029.2,027.7,000.0,037.7,030.7,013.8,0000.0,0008.56,0002.07,0001.14
2024-06-04 20:31:00,SystemResetWarning,0824.9,5.00,000.00,029.3,028.0,000.0,037.7,030.9,013.4,0000.0,0009.06,0002.06,0001.14
2024-06-04 20:32:00,SystemResetWarning,0824.9,5.01,000.00,029.3,028.3,000.0,037.6,031.0,013.6,0000.0,0008.26,0002.10,0001.15
2024-06-04 20:33:00,SystemResetWarning,0824.9,5.01,000.00,029.4,028.5,000.0,037.6,031.1,013.7,0000.0,0007.72,0002.05,0001.14
2024-06-04 20:34:00,SystemResetWarning,0824.9,5.00,000.00,029.4,028.7,000.0,037.7,031.2,013.5,0000.0,0006.73,0002.04,0001.14
2024-06-04 20:35:00,SystemResetWarning,0824.9,5.00,000.00,029.5,028.9,000.0,037.7,031.3,014.2,0000.0,0006.68,0002.09,0001.14
2024-06-04 20:36:00,SystemResetWarning,0824.9,4.99,000.00,029.6,029.0,000.0,037.7,031.4,013.2,0000.0,0006.88,0002.13,0001.15
2024-06-04 20:37:00,SystemResetWarning,0824.9,5.00,000.00,029.7,029.2,000.0,037.7,031.4,013.6,0000.0,0006.21,0002.07,0001.15
2024-06-04 20:38:00,SystemResetWarning,0824.9,4.99,000.00,029.6,028.4,000.0,037.8,031.0,013.8,0000.0,0005.68,0002.03,0001.16
2024-06-04 20:39:00,SystemResetWarning,0824.9,5.00,000.00,029.3,026.0,000.0,037.8,029.9,013.7,0000.0,0005.76,0002.05,0001.17
2024-06-04 20:40:00,SystemResetWarning,0824.8,5.02,000.00,028.9,025.6,000.0,037.8,029.6,014.7,0000.0,0006.97,0002.13,0001.16
2024-06-04 20:41:00,SystemResetWarning,0824.9,4.99,000.00,028.8,026.2,000.0,037.7,029.9,014.1,0000.0,0007.74,0002.16,0001.16
2024-06-04 20:42:00,SystemResetWarning,0824.9,5.00,000.00,028.8,026.6,000.0,037.6,030.1,014.0,0000.0,0006.97,0002.16,0001.16
2024-06-04 20:43:00,SystemResetWarning,0824.9,5.01,000.00,028.9,027.1,000.0,037.5,030.3,013.8,0000.0,0006.75,0002.15,0001.15
2024-06-04 20:44:00,SystemResetWarning,0824.9,5.00,000.00,028.9,027.5,000.0,037.5,030.5,014.0,0000.0,0006.69,0002.14,0001.15
2024-06-04 20:45:00,SystemResetWarning,0824.9,5.00,000.00,029.0,027.8,000.0,037.4,030.7,013.8,0000.0,0006.88,0002.23,0001.16
2024-06-04 20:46:00,SystemResetWarning,0824.9,5.00,000.00,029.1,028.1,000.0,037.4,030.8,013.7,0000.0,0006.82,0002.26,0001.17
2024-06-04 20:47:00,SystemResetWarning,0824.9,5.00,000.00,029.1,028.3,000.0,037.4,030.9,013.5,0000.0,0007.40,0002.25,0001.18
2024-06-04 20:48:00,SystemResetWarning,0824.9,5.00,000.00,029.2,028.5,000.0,037.4,031.0,013.6,0000.0,0007.45,0002.33,0001.19
2024-06-04 20:49:00,SystemResetWarning,0824.9,5.00,000.00,029.3,028.7,000.0,037.4,031.1,013.8,0000.0,0007.44,0002.33,0001.19
2024-06-04 20:50:00,SystemResetWarning,0824.9,5.00,000.00,029.3,028.9,000.0,037.5,031.2,013.9,0000.0,0007.37,0002.28,0001.18
2024-06-04 20:51:00,SystemResetWarning,0824.9,5.00,000.00,029.4,029.0,000.0,037.5,031.3,014.0,0000.0,0006.25,0002.25,0001.17
2024-06-04 20:52:00,SystemResetWarning,0824.9,5.00,000.00,029.5,029.1,000.0,037.5,031.3,014.1,0000.0,0005.46,0002.16,0001.16
2024-06-04 20:53:00,SystemResetWarning,0824.9,5.00,000.00,029.6,029.0,000.0,037.6,031.3,014.4,0000.0,0006.47,0002.15,0001.17
2024-06-04 20:54:00,SystemResetWarning,0824.9,4.98,000.00,029.4,027.1,000.0,037.7,030.4,014.4,0000.0,0007.52,0002.18,0001.18
2024-06-04 20:55:00,SystemResetWarning,0824.9,5.01,000.00,029.0,025.4,000.0,037.7,029.6,014.1,0000.0,0007.49,0002.16,0001.17
2024-06-04 20:56:00,SystemResetWarning,0824.9,5.01,000.00,028.8,025.9,000.0,037.6,029.7,013.8,0000.0,0007.40,0002.09,0001.17
2024-06-04 20:57:00,SystemResetWarning,0824.9,4.98,000.00,028.8,026.4,000.0,037.5,030.0,014.3,0000.0,0007.20,0002.04,0001.17
2024-06-04 20:58:00,SystemResetWarning,0824.9,4.99,000.00,028.8,026.9,000.0,037.4,030.2,013.9,0000.0,0006.32,0001.99,0001.16
2024-06-04 20:59:00,SystemResetWarning,0824.9,5.00,000.00,028.9,027.3,000.0,037.4,030.4,013.6,0000.0,0006.21,0001.92,0001.15
